Location: Unspecified
(0.0000°N, 0.0000°E)
Time: 03:36:36
(UTC+00:00)

Nadezhda 3 - Visible Passes

Search period start: 14 May 2026 00:00
Search period end: 24 May 2026 00:00
Orbit: 953 x 1014 km, 82.9° (Epoch: 13 May)

Date Brightness Start Highest point End Pass type
(mag) Time Alt. Az. Time Alt. Az. Time Alt. Az.
14 May 6.8 18:39:03 10° NNW 18:44:59 54° W 18:50:58 10° S visible
15 May 8.3 19:07:59 10° NW 19:12:39 23° W 19:17:22 10° SW visible
16 May 9.2 04:47:17 10° ESE 04:48:46 11° E 04:50:14 10° E visible
17 May 8.3 05:11:08 10° SSE 05:16:27 27° E 05:21:44 10° NE visible
17 May 6.8 18:16:48 10° NNW 18:22:45 57° W 18:28:47 10° S visible
18 May 8.3 18:45:40 10° NW 18:50:26 24° W 18:55:15 10° SW visible
19 May 9.2 04:25:48 10° E 04:26:34 10° E 04:27:21 10° E visible
20 May 8.3 04:49:02 10° SSE 04:54:15 26° E 04:59:26 10° NE visible
21 May 6.8 05:15:37 10° S 05:21:58 60° E 05:28:13 10° NNE visible
21 May 8.4 18:23:20 10° NW 18:28:12 25° W 18:33:08 10° SSW visible
23 May 8.2 04:26:56 10° SSE 04:32:05 25° E 04:37:08 10° NE visible
